Regional Weather Roundup
Issued by NWS

Home | Current Version | Previous Version | Graphics & Text | Print | Product List | Glossary On
Versions: 1 2 3 4 5 6 7 8 9 10 11 12 13 14 15 16 17 18 19 20 21 22 23 24 25 26 27 28 29 30 31 32 33 34 35 36 37 38 39 40 41 42 43 44 45 46 47 48 49 50
114
ASUS43 KLOT 191904
RWRIL

ILLINOIS REGIONAL WEATHER ROUNDUP
NATIONAL WEATHER SERVICE CHICAGO/ROMEOVILLE IL
200 PM CDT THU OCT 19 2017

NOTE: "FAIR" INDICATES FEW OR NO CLOUDS BELOW 12,000 FEET WITH NO
SIGNIFICANT WEATHER AND/OR OBSTRUCTIONS TO VISIBILITY.

* THESE STATIONS ARE NOT UNDER NWS QUALITY CONTROL. THEY ALSO MAY NOT
  REPORT WEATHER SUCH AS PRECIPITATION OR FOG.

ILZ001-002-007-009-015-016-024-192000-
NORTHWEST ILLINOIS

CITY           SKY/WX    TMP DP  RH WIND       PRES   REMARKS
MOLINE         FAIR      73  35  25 SE9       30.14F
STERLING*      FAIR      71  29  21 CALM        N/A
SAVANNA*       FAIR      72  30  21 S6        30.15F
$$

ILZ003-004-008-010-011-017-018-192000-
NORTH CENTRAL ILLINOIS

CITY           SKY/WX    TMP DP  RH WIND       PRES   REMARKS
ROCKFORD       PTSUNNY   71  28  20 VRB3      30.17F
FREEPORT*      FAIR      69  29  22 SE7       30.17F
ROCHELLE*      FAIR      70  29  22 CALM      30.17S
DE KALB*       FAIR      69  31  24 CALM      30.18S
PERU*          FAIR      69  27  20 SE7       30.17F
$$

ILZ005-006-012>014-019>023-192000-
NORTHEAST ILLINOIS

CITY           SKY/WX    TMP DP  RH WIND       PRES   REMARKS
CHICAGO-OHARE  PTSUNNY   69  23  17 CALM      30.17F
CHICAGO-MIDWAY PTSUNNY   68  23  18 S3        30.17F
AURORA         FAIR      70  26  19 CALM      30.18F
LANSING*       FAIR      66  33  29 CALM      30.18F
JOLIET*        FAIR      70  29  21 CALM      30.17F
WAUKEGAN       FAIR      64  27  24 E8        30.16F
DUPAGE AIRPORT FAIR      68  25  19 CALM      30.17F
KANKAKEE*      FAIR      71  37  28 SE3       30.17F
WHEELING       FAIR      68  26  20 SE3       30.18F
MORRIS*        FAIR      71  27  19 CALM      30.16F
ROMEOVILLE*    FAIR      68  29  23 CALM      30.17F
NORTHERLY ISL    N/A     62  35  36 NE7         N/A
$$

LMZ740>746-192000-
SOUTHERN LAKE MICHIGAN

STATION/POSITION SKY/WX   TEMP    WIND        PRES    VSBY  WAVE
                          AIR SEA DIR/SP/G                  HT/PER
                          (F)     (DEG/KT/KT) (MB)    (MI)  (FT/S)
SOUTHERN BUOY              58 61  310/  6/  8 1022.4          2/ 5
WILMETTE HARBOR            59 58   70/  4/  6   N/A           0
HARRISON CRIB              60      30/  4/  5   N/A
BURNHAM HARBOR             62      40/  6/  7   N/A
CALUMET HARBOR             61      60/  5/  6 1021.5F
BURNS HARBOR               60     340/  3/  4 1022.7F
MICHIGAN CITY              63     330/  3/  4   N/A
MICHIGAN CITY 6N           60 59  340/  2/  4   N/A           1/ 3
ST. JOSEPH                 60 59  360/  6/  8 1022.4F         2/ 4
$$

ILZ025>027-034>036-040-047-049-050-058-095>099-192000-
WEST-CENTRAL ILLINOIS

CITY           SKY/WX    TMP DP  RH WIND       PRES   REMARKS
QUINCY         FAIR      74  51  44 S6        30.13F
GALESBURG*     FAIR      80  61  52 SE6       30.16F HX  81
MACOMB*        FAIR      75  49  40 S7        30.16F
JACKSONVILLE*  FAIR      76  53  44 S9        30.15F
PITTSFIELD*    FAIR      76  53  46 S6        30.15F
$$

ILZ028>032-037-038-041>044-048-051>054-059>061-192000-
CENTRAL ILLINOIS

CITY           SKY/WX    TMP DP  RH WIND       PRES   REMARKS
PONTIAC        FAIR      72  45  38 CALM      30.17F
BLOOMINGTON    FAIR      74  53  48 SW6       30.17F
DECATUR        FAIR      75  51  43 S9        30.16F
PEORIA         FAIR      72  54  53 CALM      30.16F
LACON*         FAIR      73  44  35 E5        30.15F
LINCOLN*       FAIR      76  54  45 SE5       30.15F
SPRINGFIELD    FAIR      77  54  44 SE6       30.15F
TAYLORVILLE    FAIR      76  50  40 SW6       30.16F
$$

ILZ033-039-045-046-055>057-062-063-192000-
EAST-CENTRAL ILLINOIS

CITY           SKY/WX    TMP DP  RH WIND       PRES   REMARKS
CHAMPAIGN      FAIR      78  49  35 SW10      30.16F
DANVILLE*      FAIR      73  51  46 SW5       30.15F
RANTOUL*       FAIR      75  54  48 CALM      30.16F
MATTOON        FAIR      75  52  44 S8        30.16F
PARIS*         FAIR      75  53  45 S8        30.18F
$$

ILZ079-100>102-192000-
SOUTHWEST ILLINOIS

CITY           SKY/WX    TMP DP  RH WIND       PRES   REMARKS
ALTON          SUNNY     73  52  46 CALM      30.17F
CAHOKIA*       FAIR      80  47  31 CALM      30.16F
SPARTA*        FAIR      77  49  37 CALM      30.19F
$$

ILZ064>066-069>071-074>076-080>082-084>086-088>090-092>094-192000-
SOUTH-CENTRAL ILLINOIS

CITY           SKY/WX    TMP DP  RH WIND       PRES   REMARKS
CARBONDALE     FAIR      76  53  44 S8        30.19F
CAIRO*         FAIR      75  51  43 SW7       30.20F
EFFINGHAM*     FAIR      77  51  39 SW3       30.18F
CENTRALIA*     FAIR      80  50  35 SW8G18    30.16F
SALEM*         FAIR      80  47  31 S7        30.18F
METROPOLIS*    FAIR      76  53  44 SW3       30.22F
$$

ILZ067-068-072-073-078-083-087-091-192000-
SOUTHEAST ILLINOIS

CITY           SKY/WX    TMP DP  RH WIND       PRES   REMARKS
LAWRENCEVILLE  FAIR      74  53  48 SW8       30.19F
FLORA*         FAIR      78  51  39 CALM      30.18F
FAIRFIELD*     FAIR      77  50  38 S3        30.18F
HARRISBURG*    FAIR      76  54  46 SW8       30.20F
ROBINSON*      FAIR      74  51  44 CALM      30.19F
CARMI*         FAIR      77  52  40 SW5       30.19F
$$

ABBREVIATIONS USED IN REMARKS
   TC - TEMPERATURE IN CELSIUS
  WCI - WIND CHILL INDEX
   HX - HEAT INDEX
  VSB - VISIBILITY
$$





USA.gov is the U.S. government's official web portal to all federal, state and local government web resources and services.